owner,sensor,date,latitude,longitude,vertical_datum,wind_speed,wind_to_direction,wind_speed_of_gust,qcFlag 
TCOON,ioos:station:TCOON:524:1,2010-05-01T00:00:00Z,29.8672,-93.9310,0.0,4.6,130.0,,'1111122,1111122,1111122' 
TCOON,ioos:station:TCOON:524:1,2010-05-01T00:06:00Z,29.8672,-93.9310,0.0,4.7,121.0,6.4,'11111222,11111222,11111222' 
TCOON,ioos:station:TCOON:524:1,2010-05-01T00:12:00Z,29.8672,-93.9310,0.0,6.0,116.0,8.0,'11111222,11111222,11111222' 
TCOON,ioos:station:TCOON:524:1,2010-05-01T00:18:00Z,29.8672,-93.9310,0.0,4.7,124.0,8.3,'11111222,11111222,11111222' 
TCOON,ioos:station:TCOON:524:1,2010-05-01T00:24:00Z,29.8672,-93.9310,0.0,4.5,127.0,6.3,'11111222,11111222,11111222' 
TCOON,ioos:station:TCOON:524:1,2010-05-01T00:30:00Z,29.8672,-93.9310,0.0,4.0,120.0,7.1,'11111222,11111222,11111222' 
TCOON,ioos:station:TCOON:524:1,2010-05-01T00:36:00Z,29.8672,-93.9310,0.0,4.0,134.0,6.1,'11111222,11111222,11111222' 
TCOON,ioos:station:TCOON:524:1,2010-05-01T00:42:00Z,29.8672,-93.9310,0.0,4.7,118.0,7.2,'11111222,11111222,11111222' 
TCOON,ioos:station:TCOON:524:1,2010-05-01T00:48:00Z,29.8672,-93.9310,0.0,3.1,124.0,7.2,'11111222,11111222,11111222' 
TCOON,ioos:station:TCOON:524:1,2010-05-01T00:54:00Z,29.8672,-93.9310,0.0,4.9,124.0,6.7,'11111222,11111222,11111222' 
TCOON,ioos:station:TCOON:524:1,2010-05-01T01:00:00Z,29.8672,-93.9310,0.0,4.1,130.0,,'1111122,1111122,1111122' 
TCOON,ioos:station:TCOON:524:1,2010-05-01T02:06:00Z,29.8672,-93.9310,0.0,4.7,121.0,7.1,'11111222,11111222,11111222' 
TCOON,ioos:station:TCOON:524:1,2010-05-01T02:12:00Z,29.8672,-93.9310,0.0,4.5,116.0,5.9,'11111222,11111222,11111222' 
TCOON,ioos:station:TCOON:524:1,2010-05-01T02:18:00Z,29.8672,-93.9310,0.0,5.0,125.0,8.1,'11111222,11111222,11111222' 
TCOON,ioos:station:TCOON:524:1,2010-05-01T02:24:00Z,29.8672,-93.9310,0.0,4.6,126.0,7.3,'11111222,11111222,11111222' 
TCOON,ioos:station:TCOON:524:1,2010-05-01T02:30:00Z,29.8672,-93.9310,0.0,4.2,131.0,7.4,'11111222,11111222,11111222' 
TCOON,ioos:station:TCOON:524:1,2010-05-01T02:36:00Z,29.8672,-93.9310,0.0,3.7,122.0,6.9,'11111222,11111222,11111222' 
TCOON,ioos:station:TCOON:524:1,2010-05-01T02:42:00Z,29.8672,-93.9310,0.0,4.6,119.0,8.2,'11111222,11111222,11111222' 
TCOON,ioos:station:TCOON:524:1,2010-05-01T02:48:00Z,29.8672,-93.9310,0.0,4.6,127.0,6.6,'11111222,11111222,11111222' 
TCOON,ioos:station:TCOON:524:1,2010-05-01T02:54:00Z,29.8672,-93.9310,0.0,4.5,124.0,7.1,'11111222,11111222,11111222' 
TCOON,ioos:station:TCOON:524:1,2010-05-01T03:00:00Z,29.8672,-93.9310,0.0,3.6,120.0,,'1111122,1111122,1111122' 
TCOON,ioos:station:TCOON:524:1,2010-05-01T03:06:00Z,29.8672,-93.9310,0.0,3.6,123.0,5.9,'11111222,11111222,11111222' 
TCOON,ioos:station:TCOON:524:1,2010-05-01T03:12:00Z,29.8672,-93.9310,0.0,4.1,122.0,6.2,'11111222,11111222,11111222' 
TCOON,ioos:station:TCOON:524:1,2010-05-01T03:18:00Z,29.8672,-93.9310,0.0,4.2,119.0,5.8,'11111222,11111222,11111222' 
TCOON,ioos:station:TCOON:524:1,2010-05-01T03:24:00Z,29.8672,-93.9310,0.0,4.5,120.0,6.9,'11111222,11111222,11111222' 
TCOON,ioos:station:TCOON:524:1,2010-05-01T03:30:00Z,29.8672,-93.9310,0.0,4.8,118.0,7.5,'11111222,11111222,11111222' 
TCOON,ioos:station:TCOON:524:1,2010-05-01T03:36:00Z,29.8672,-93.9310,0.0,5.0,116.0,7.7,'11111222,11111222,11111222' 
TCOON,ioos:station:TCOON:524:1,2010-05-01T03:42:00Z,29.8672,-93.9310,0.0,5.1,116.0,7.9,'11111222,11111222,11111222' 
TCOON,ioos:station:TCOON:524:1,2010-05-01T03:48:00Z,29.8672,-93.9310,0.0,5.0,118.0,7.7,'11111222,11111222,11111222' 
TCOON,ioos:station:TCOON:524:1,2010-05-01T03:54:00Z,29.8672,-93.9310,0.0,5.6,117.0,8.6,'11111222,11111222,11111222' 
TCOON,ioos:station:TCOON:524:1,2010-05-01T04:00:00Z,29.8672,-93.9310,0.0,5.1,120.0,,'1111122,1111122,1111122' 
TCOON,ioos:station:TCOON:524:1,2010-05-01T04:06:00Z,29.8672,-93.9310,0.0,5.7,115.0,8.4,'11111222,11111222,11111222' 
TCOON,ioos:station:TCOON:524:1,2010-05-01T04:12:00Z,29.8672,-93.9310,0.0,4.6,118.0,7.1,'11111222,11111222,11111222' 
TCOON,ioos:station:TCOON:524:1,2010-05-01T04:18:00Z,29.8672,-93.9310,0.0,4.2,120.0,6.1,'11111222,11111222,11111222' 
TCOON,ioos:station:TCOON:524:1,2010-05-01T04:24:00Z,29.8672,-93.9310,0.0,4.8,122.0,7.6,'11111222,11111222,11111222' 
TCOON,ioos:station:TCOON:524:1,2010-05-01T04:30:00Z,29.8672,-93.9310,0.0,4.6,119.0,6.5,'11111222,11111222,11111222' 
TCOON,ioos:station:TCOON:524:1,2010-05-01T04:36:00Z,29.8672,-93.9310,0.0,5.0,121.0,7.4,'11111222,11111222,11111222' 
TCOON,ioos:station:TCOON:524:1,2010-05-01T04:42:00Z,29.8672,-93.9310,0.0,4.6,117.0,6.6,'11111222,11111222,11111222' 
TCOON,ioos:station:TCOON:524:1,2010-05-01T04:48:00Z,29.8672,-93.9310,0.0,4.7,118.0,6.4,'11111222,11111222,11111222' 
TCOON,ioos:station:TCOON:524:1,2010-05-01T04:54:00Z,29.8672,-93.9310,0.0,4.4,118.0,7.2,'11111222,11111222,11111222' 
TCOON,ioos:station:TCOON:524:1,2010-05-01T05:00:00Z,29.8672,-93.9310,0.0,4.1,120.0,,'1111122,1111122,1111122' 
TCOON,ioos:station:TCOON:524:1,2010-05-01T05:06:00Z,29.8672,-93.9310,0.0,4.4,116.0,7.3,'11111222,11111222,11111222' 
TCOON,ioos:station:TCOON:524:1,2010-05-01T05:12:00Z,29.8672,-93.9310,0.0,5.2,116.0,7.4,'11111222,11111222,11111222' 
TCOON,ioos:station:TCOON:524:1,2010-05-01T05:18:00Z,29.8672,-93.9310,0.0,4.9,115.0,7.3,'11111222,11111222,11111222' 
TCOON,ioos:station:TCOON:524:1,2010-05-01T05:24:00Z,29.8672,-93.9310,0.0,4.0,121.0,6.2,'11111222,11111222,11111222' 
TCOON,ioos:station:TCOON:524:1,2010-05-01T05:30:00Z,29.8672,-93.9310,0.0,4.3,119.0,6.5,'11111222,11111222,11111222' 
TCOON,ioos:station:TCOON:524:1,2010-05-01T05:36:00Z,29.8672,-93.9310,0.0,4.8,118.0,7.2,'11111222,11111222,11111222' 
TCOON,ioos:station:TCOON:524:1,2010-05-01T05:42:00Z,29.8672,-93.9310,0.0,4.6,121.0,6.3,'11111222,11111222,11111222' 
TCOON,ioos:station:TCOON:524:1,2010-05-01T05:48:00Z,29.8672,-93.9310,0.0,3.9,120.0,6.4,'11111222,11111222,11111222' 
TCOON,ioos:station:TCOON:524:1,2010-05-01T05:54:00Z,29.8672,-93.9310,0.0,4.1,121.0,6.3,'11111222,11111222,11111222' 
TCOON,ioos:station:TCOON:524:1,2010-05-01T06:00:00Z,29.8672,-93.9310,0.0,4.6,120.0,,'1111122,1111122,1111122' 
TCOON,ioos:station:TCOON:524:1,2010-05-01T06:06:00Z,29.8672,-93.9310,0.0,4.1,124.0,6.3,'11111222,11111222,11111222' 
TCOON,ioos:station:TCOON:524:1,2010-05-01T06:12:00Z,29.8672,-93.9310,0.0,4.2,126.0,7.2,'11111222,11111222,11111222' 
TCOON,ioos:station:TCOON:524:1,2010-05-01T06:18:00Z,29.8672,-93.9310,0.0,3.4,119.0,5.3,'11111222,11111222,11111222' 
TCOON,ioos:station:TCOON:524:1,2010-05-01T06:24:00Z,29.8672,-93.9310,0.0,3.7,120.0,6.9,'11111222,11111222,11111222' 
TCOON,ioos:station:TCOON:524:1,2010-05-01T06:30:00Z,29.8672,-93.9310,0.0,3.4,121.0,4.7,'11111222,11111222,11111222' 
TCOON,ioos:station:TCOON:524:1,2010-05-01T06:36:00Z,29.8672,-93.9310,0.0,4.0,120.0,6.7,'11111222,11111222,11111222' 
TCOON,ioos:station:TCOON:524:1,2010-05-01T06:42:00Z,29.8672,-93.9310,0.0,3.8,126.0,5.6,'11111222,11111222,11111222' 
TCOON,ioos:station:TCOON:524:1,2010-05-01T06:48:00Z,29.8672,-93.9310,0.0,3.9,123.0,6.1,'11111222,11111222,11111222' 
TCOON,ioos:station:TCOON:524:1,2010-05-01T06:54:00Z,29.8672,-93.9310,0.0,3.6,123.0,5.9,'11111222,11111222,11111222' 
TCOON,ioos:station:TCOON:524:1,2010-05-01T07:00:00Z,29.8672,-93.9310,0.0,4.1,120.0,,'1111122,1111122,1111122' 
TCOON,ioos:station:TCOON:524:1,2010-05-01T07:06:00Z,29.8672,-93.9310,0.0,3.5,120.0,5.1,'11111222,11111222,11111222' 
TCOON,ioos:station:TCOON:524:1,2010-05-01T07:12:00Z,29.8672,-93.9310,0.0,3.6,125.0,6.4,'11111222,11111222,11111222' 
TCOON,ioos:station:TCOON:524:1,2010-05-01T07:18:00Z,29.8672,-93.9310,0.0,4.3,122.0,7.2,'11111222,11111222,11111222' 
TCOON,ioos:station:TCOON:524:1,2010-05-01T07:24:00Z,29.8672,-93.9310,0.0,4.6,118.0,7.3,'11111222,11111222,11111222' 
TCOON,ioos:station:TCOON:524:1,2010-05-01T07:30:00Z,29.8672,-93.9310,0.0,4.3,113.0,7.1,'11111222,11111222,11111222' 
TCOON,ioos:station:TCOON:524:1,2010-05-01T07:36:00Z,29.8672,-93.9310,0.0,4.1,116.0,5.9,'11111222,11111222,11111222' 
TCOON,ioos:station:TCOON:524:1,2010-05-01T07:42:00Z,29.8672,-93.9310,0.0,3.9,116.0,5.1,'11111222,11111222,11111222' 
TCOON,ioos:station:TCOON:524:1,2010-05-01T07:48:00Z,29.8672,-93.9310,0.0,4.0,116.0,5.4,'11111222,11111222,11111222' 
TCOON,ioos:station:TCOON:524:1,2010-05-01T07:54:00Z,29.8672,-93.9310,0.0,3.6,119.0,6.2,'11111222,11111222,11111222' 
TCOON,ioos:station:TCOON:524:1,2010-05-01T08:00:00Z,29.8672,-93.9310,0.0,4.1,120.0,,'1111122,1111122,1111122' 
TCOON,ioos:station:TCOON:524:1,2010-05-01T08:06:00Z,29.8672,-93.9310,0.0,4.3,120.0,6.5,'11111222,11111222,11111222' 
TCOON,ioos:station:TCOON:524:1,2010-05-01T08:12:00Z,29.8672,-93.9310,0.0,3.7,120.0,5.8,'11111222,11111222,11111222' 
TCOON,ioos:station:TCOON:524:1,2010-05-01T08:18:00Z,29.8672,-93.9310,0.0,3.9,112.0,5.8,'11111222,11111222,11111222' 
TCOON,ioos:station:TCOON:524:1,2010-05-01T08:24:00Z,29.8672,-93.9310,0.0,4.7,110.0,6.1,'11111222,11111222,11111222' 
TCOON,ioos:station:TCOON:524:1,2010-05-01T08:30:00Z,29.8672,-93.9310,0.0,3.9,113.0,6.0,'11111222,11111222,11111222' 
TCOON,ioos:station:TCOON:524:1,2010-05-01T08:36:00Z,29.8672,-93.9310,0.0,3.3,113.0,5.1,'11111222,11111222,11111222' 
TCOON,ioos:station:TCOON:524:1,2010-05-01T08:42:00Z,29.8672,-93.9310,0.0,3.7,112.0,5.5,'11111222,11111222,11111222' 
TCOON,ioos:station:TCOON:524:1,2010-05-01T08:48:00Z,29.8672,-93.9310,0.0,3.6,111.0,4.8,'11111222,11111222,11111222' 
TCOON,ioos:station:TCOON:524:1,2010-05-01T08:54:00Z,29.8672,-93.9310,0.0,4.1,111.0,5.6,'11111222,11111222,11111222' 
TCOON,ioos:station:TCOON:524:1,2010-05-01T09:00:00Z,29.8672,-93.9310,0.0,3.1,110.0,,'1111122,1111122,1111122' 
TCOON,ioos:station:TCOON:524:1,2010-05-01T09:06:00Z,29.8672,-93.9310,0.0,5.0,109.0,7.0,'11111222,11111222,11111222' 
TCOON,ioos:station:TCOON:524:1,2010-05-01T09:12:00Z,29.8672,-93.9310,0.0,4.9,107.0,7.0,'11111222,11111222,11111222' 
TCOON,ioos:station:TCOON:524:1,2010-05-01T09:18:00Z,29.8672,-93.9310,0.0,5.6,109.0,7.3,'11111222,11111222,11111222' 
TCOON,ioos:station:TCOON:524:1,2010-05-01T09:24:00Z,29.8672,-93.9310,0.0,4.9,109.0,7.0,'11111222,11111222,11111222' 
TCOON,ioos:station:TCOON:524:1,2010-05-01T09:30:00Z,29.8672,-93.9310,0.0,3.8,114.0,6.1,'11111222,11111222,11111222' 
TCOON,ioos:station:TCOON:524:1,2010-05-01T09:36:00Z,29.8672,-93.9310,0.0,4.2,112.0,6.3,'11111222,11111222,11111222' 
TCOON,ioos:station:TCOON:524:1,2010-05-01T09:42:00Z,29.8672,-93.9310,0.0,4.8,109.0,6.3,'11111222,11111222,11111222' 
TCOON,ioos:station:TCOON:524:1,2010-05-01T09:48:00Z,29.8672,-93.9310,0.0,3.5,114.0,4.8,'11111222,11111222,11111222' 
TCOON,ioos:station:TCOON:524:1,2010-05-01T09:54:00Z,29.8672,-93.9310,0.0,3.7,112.0,5.0,'11111222,11111222,11111222' 
TCOON,ioos:station:TCOON:524:1,2010-05-01T10:00:00Z,29.8672,-93.9310,0.0,4.1,110.0,,'1111122,1111122,1111122' 
TCOON,ioos:station:TCOON:524:1,2010-05-01T10:06:00Z,29.8672,-93.9310,0.0,3.3,117.0,4.7,'11111222,11111222,11111222' 
TCOON,ioos:station:TCOON:524:1,2010-05-01T10:12:00Z,29.8672,-93.9310,0.0,4.6,121.0,6.8,'11111222,11111222,11111222' 
TCOON,ioos:station:TCOON:524:1,2010-05-01T10:18:00Z,29.8672,-93.9310,0.0,4.3,123.0,6.7,'11111222,11111222,11111222' 
TCOON,ioos:station:TCOON:524:1,2010-05-01T10:24:00Z,29.8672,-93.9310,0.0,3.2,122.0,5.3,'11111222,11111222,11111222' 
TCOON,ioos:station:TCOON:524:1,2010-05-01T10:30:00Z,29.8672,-93.9310,0.0,4.3,116.0,6.1,'11111222,11111222,11111222' 
TCOON,ioos:station:TCOON:524:1,2010-05-01T10:36:00Z,29.8672,-93.9310,0.0,3.9,117.0,5.9,'11111222,11111222,11111222' 
TCOON,ioos:station:TCOON:524:1,2010-05-01T10:42:00Z,29.8672,-93.9310,0.0,3.7,120.0,6.4,'11111222,11111222,11111222' 
TCOON,ioos:station:TCOON:524:1,2010-05-01T10:48:00Z,29.8672,-93.9310,0.0,4.3,120.0,6.6,'11111222,11111222,11111222' 
TCOON,ioos:station:TCOON:524:1,2010-05-01T10:54:00Z,29.8672,-93.9310,0.0,4.5,127.0,6.5,'11111222,11111222,11111222' 
TCOON,ioos:station:TCOON:524:1,2010-05-01T11:00:00Z,29.8672,-93.9310,0.0,3.6,130.0,,'1111122,1111122,1111122' 
TCOON,ioos:station:TCOON:524:1,2010-05-01T11:06:00Z,29.8672,-93.9310,0.0,3.5,125.0,6.5,'11111222,11111222,11111222' 
TCOON,ioos:station:TCOON:524:1,2010-05-01T11:12:00Z,29.8672,-93.9310,0.0,3.6,126.0,5.2,'11111222,11111222,11111222' 
TCOON,ioos:station:TCOON:524:1,2010-05-01T11:18:00Z,29.8672,-93.9310,0.0,4.3,121.0,6.9,'11111222,11111222,11111222' 
TCOON,ioos:station:TCOON:524:1,2010-05-01T11:24:00Z,29.8672,-93.9310,0.0,3.7,120.0,6.6,'11111222,11111222,11111222' 
TCOON,ioos:station:TCOON:524:1,2010-05-01T11:30:00Z,29.8672,-93.9310,0.0,4.1,120.0,5.8,'11111222,11111222,11111222' 
TCOON,ioos:station:TCOON:524:1,2010-05-01T11:36:00Z,29.8672,-93.9310,0.0,3.8,123.0,5.8,'11111222,11111222,11111222' 
TCOON,ioos:station:TCOON:524:1,2010-05-01T11:42:00Z,29.8672,-93.9310,0.0,4.0,121.0,7.7,'11111222,11111222,11111222' 
TCOON,ioos:station:TCOON:524:1,2010-05-01T11:48:00Z,29.8672,-93.9310,0.0,3.1,119.0,5.0,'11111222,11111222,11111222' 
TCOON,ioos:station:TCOON:524:1,2010-05-01T11:54:00Z,29.8672,-93.9310,0.0,3.2,116.0,4.3,'11111222,11111222,11111222' 
TCOON,ioos:station:TCOON:524:1,2010-05-01T12:00:00Z,29.8672,-93.9310,0.0,3.6,120.0,,'1111122,1111122,1111122' 
TCOON,ioos:station:TCOON:524:1,2010-05-01T12:06:00Z,29.8672,-93.9310,0.0,3.6,132.0,6.1,'11111222,11111222,11111222' 
TCOON,ioos:station:TCOON:524:1,2010-05-01T12:12:00Z,29.8672,-93.9310,0.0,3.8,139.0,5.6,'11111222,11111222,11111222' 
TCOON,ioos:station:TCOON:524:1,2010-05-01T12:18:00Z,29.8672,-93.9310,0.0,3.3,120.0,5.8,'11111222,11111222,11111222' 
TCOON,ioos:station:TCOON:524:1,2010-05-01T12:24:00Z,29.8672,-93.9310,0.0,3.1,132.0,4.4,'11111222,11111222,11111222' 
TCOON,ioos:station:TCOON:524:1,2010-05-01T12:30:00Z,29.8672,-93.9310,0.0,3.5,122.0,5.8,'11111222,11111222,11111222' 
TCOON,ioos:station:TCOON:524:1,2010-05-01T12:36:00Z,29.8672,-93.9310,0.0,2.5,129.0,4.7,'11111222,11111222,11111222' 
TCOON,ioos:station:TCOON:524:1,2010-05-01T12:42:00Z,29.8672,-93.9310,0.0,3.5,143.0,5.2,'11111222,11111222,11111222' 
TCOON,ioos:station:TCOON:524:1,2010-05-01T12:48:00Z,29.8672,-93.9310,0.0,2.8,146.0,3.9,'11111222,11111222,11111222' 
TCOON,ioos:station:TCOON:524:1,2010-05-01T12:54:00Z,29.8672,-93.9310,0.0,2.4,118.0,3.4,'11111222,11111222,11111222' 
TCOON,ioos:station:TCOON:524:1,2010-05-01T13:00:00Z,29.8672,-93.9310,0.0,2.6,130.0,,'1111122,1111122,1111122' 
TCOON,ioos:station:TCOON:524:1,2010-05-01T13:06:00Z,29.8672,-93.9310,0.0,2.9,123.0,4.4,'11111222,11111222,11111222' 
TCOON,ioos:station:TCOON:524:1,2010-05-01T13:12:00Z,29.8672,-93.9310,0.0,2.7,121.0,4.3,'11111222,11111222,11111222' 
TCOON,ioos:station:TCOON:524:1,2010-05-01T13:18:00Z,29.8672,-93.9310,0.0,2.9,134.0,4.4,'11111222,11111222,11111222' 
TCOON,ioos:station:TCOON:524:1,2010-05-01T13:24:00Z,29.8672,-93.9310,0.0,3.1,134.0,4.9,'11111222,11111222,11111222' 
TCOON,ioos:station:TCOON:524:1,2010-05-01T13:30:00Z,29.8672,-93.9310,0.0,2.9,122.0,5.6,'11111222,11111222,11111222' 
TCOON,ioos:station:TCOON:524:1,2010-05-01T13:36:00Z,29.8672,-93.9310,0.0,2.9,124.0,4.2,'11111222,11111222,11111222' 
TCOON,ioos:station:TCOON:524:1,2010-05-01T13:42:00Z,29.8672,-93.9310,0.0,3.1,119.0,5.2,'11111222,11111222,11111222' 
TCOON,ioos:station:TCOON:524:1,2010-05-01T13:48:00Z,29.8672,-93.9310,0.0,3.3,120.0,5.1,'11111222,11111222,11111222' 
TCOON,ioos:station:TCOON:524:1,2010-05-01T13:54:00Z,29.8672,-93.9310,0.0,3.1,125.0,4.9,'11111222,11111222,11111222' 
TCOON,ioos:station:TCOON:524:1,2010-05-01T14:00:00Z,29.8672,-93.9310,0.0,3.1,120.0,,'1111122,1111122,1111122' 
TCOON,ioos:station:TCOON:524:1,2010-05-01T14:06:00Z,29.8672,-93.9310,0.0,3.4,125.0,5.6,'11111222,11111222,11111222' 
TCOON,ioos:station:TCOON:524:1,2010-05-01T14:12:00Z,29.8672,-93.9310,0.0,2.9,126.0,4.6,'11111222,11111222,11111222' 
TCOON,ioos:station:TCOON:524:1,2010-05-01T14:18:00Z,29.8672,-93.9310,0.0,3.4,120.0,4.6,'11111222,11111222,11111222' 
TCOON,ioos:station:TCOON:524:1,2010-05-01T14:24:00Z,29.8672,-93.9310,0.0,3.4,118.0,5.7,'11111222,11111222,11111222' 
TCOON,ioos:station:TCOON:524:1,2010-05-01T14:30:00Z,29.8672,-93.9310,0.0,3.0,116.0,4.2,'11111222,11111222,11111222' 
TCOON,ioos:station:TCOON:524:1,2010-05-01T14:36:00Z,29.8672,-93.9310,0.0,2.8,124.0,5.3,'11111222,11111222,11111222' 
TCOON,ioos:station:TCOON:524:1,2010-05-01T14:42:00Z,29.8672,-93.9310,0.0,3.4,116.0,4.6,'11111222,11111222,11111222' 
TCOON,ioos:station:TCOON:524:1,2010-05-01T14:48:00Z,29.8672,-93.9310,0.0,3.6,118.0,5.6,'11111222,11111222,11111222' 
TCOON,ioos:station:TCOON:524:1,2010-05-01T14:54:00Z,29.8672,-93.9310,0.0,3.9,122.0,6.1,'11111222,11111222,11111222' 
TCOON,ioos:station:TCOON:524:1,2010-05-01T15:00:00Z,29.8672,-93.9310,0.0,2.6,120.0,,'1111122,1111122,1111122' 
TCOON,ioos:station:TCOON:524:1,2010-05-01T15:06:00Z,29.8672,-93.9310,0.0,4.2,125.0,7.0,'11111222,11111222,11111222' 
TCOON,ioos:station:TCOON:524:1,2010-05-01T15:12:00Z,29.8672,-93.9310,0.0,3.8,120.0,5.7,'11111222,11111222,11111222' 
TCOON,ioos:station:TCOON:524:1,2010-05-01T15:18:00Z,29.8672,-93.9310,0.0,4.5,119.0,6.4,'11111222,11111222,11111222' 
TCOON,ioos:station:TCOON:524:1,2010-05-01T15:24:00Z,29.8672,-93.9310,0.0,4.1,121.0,7.5,'11111222,11111222,11111222' 
TCOON,ioos:station:TCOON:524:1,2010-05-01T15:30:00Z,29.8672,-93.9310,0.0,4.6,123.0,7.4,'11111222,11111222,11111222' 
TCOON,ioos:station:TCOON:524:1,2010-05-01T15:36:00Z,29.8672,-93.9310,0.0,4.4,118.0,6.4,'11111222,11111222,11111222' 
TCOON,ioos:station:TCOON:524:1,2010-05-01T15:42:00Z,29.8672,-93.9310,0.0,4.3,117.0,6.3,'11111222,11111222,11111222' 
TCOON,ioos:station:TCOON:524:1,2010-05-01T15:48:00Z,29.8672,-93.9310,0.0,4.3,120.0,6.6,'11111222,11111222,11111222' 
TCOON,ioos:station:TCOON:524:1,2010-05-01T15:54:00Z,29.8672,-93.9310,0.0,5.2,121.0,8.3,'11111222,11111222,11111222' 
TCOON,ioos:station:TCOON:524:1,2010-05-01T16:00:00Z,29.8672,-93.9310,0.0,4.6,120.0,,'1111122,1111122,1111122' 
TCOON,ioos:station:TCOON:524:1,2010-05-01T16:06:00Z,29.8672,-93.9310,0.0,4.6,122.0,7.2,'11111222,11111222,11111222' 
TCOON,ioos:station:TCOON:524:1,2010-05-01T16:12:00Z,29.8672,-93.9310,0.0,5.4,117.0,7.5,'11111222,11111222,11111222' 
TCOON,ioos:station:TCOON:524:1,2010-05-01T16:18:00Z,29.8672,-93.9310,0.0,4.4,118.0,7.3,'11111222,11111222,11111222' 
TCOON,ioos:station:TCOON:524:1,2010-05-01T16:24:00Z,29.8672,-93.9310,0.0,4.7,120.0,6.9,'11111222,11111222,11111222' 
TCOON,ioos:station:TCOON:524:1,2010-05-01T16:30:00Z,29.8672,-93.9310,0.0,4.8,119.0,8.4,'11111222,11111222,11111222' 
TCOON,ioos:station:TCOON:524:1,2010-05-01T16:36:00Z,29.8672,-93.9310,0.0,4.9,124.0,8.3,'11111222,11111222,11111222' 
TCOON,ioos:station:TCOON:524:1,2010-05-01T16:42:00Z,29.8672,-93.9310,0.0,5.3,122.0,7.4,'11111222,11111222,11111222' 
TCOON,ioos:station:TCOON:524:1,2010-05-01T16:48:00Z,29.8672,-93.9310,0.0,5.1,120.0,7.8,'11111222,11111222,11111222' 
TCOON,ioos:station:TCOON:524:1,2010-05-01T16:54:00Z,29.8672,-93.9310,0.0,5.0,128.0,8.9,'11111222,11111222,11111222' 
TCOON,ioos:station:TCOON:524:1,2010-05-01T17:00:00Z,29.8672,-93.9310,0.0,5.1,120.0,,'1111122,1111122,1111122' 
TCOON,ioos:station:TCOON:524:1,2010-05-01T17:06:00Z,29.8672,-93.9310,0.0,5.8,129.0,9.6,'11111222,11111222,11111222' 
TCOON,ioos:station:TCOON:524:1,2010-05-01T17:12:00Z,29.8672,-93.9310,0.0,5.4,123.0,8.2,'11111222,11111222,11111222' 
TCOON,ioos:station:TCOON:524:1,2010-05-01T17:18:00Z,29.8672,-93.9310,0.0,6.4,124.0,10.5,'11111222,11111222,11111222' 
TCOON,ioos:station:TCOON:524:1,2010-05-01T17:24:00Z,29.8672,-93.9310,0.0,5.3,122.0,9.4,'11111222,11111222,11111222' 
TCOON,ioos:station:TCOON:524:1,2010-05-01T17:30:00Z,29.8672,-93.9310,0.0,5.9,122.0,10.1,'11111222,11111222,11111222' 
TCOON,ioos:station:TCOON:524:1,2010-05-01T17:36:00Z,29.8672,-93.9310,0.0,7.0,120.0,10.5,'11111222,11111222,11111222' 
TCOON,ioos:station:TCOON:524:1,2010-05-01T17:42:00Z,29.8672,-93.9310,0.0,7.0,121.0,10.9,'11111222,11111222,11111222' 
TCOON,ioos:station:TCOON:524:1,2010-05-01T17:48:00Z,29.8672,-93.9310,0.0,6.2,122.0,10.6,'11111222,11111222,11111222' 
TCOON,ioos:station:TCOON:524:1,2010-05-01T17:54:00Z,29.8672,-93.9310,0.0,6.9,122.0,11.4,'11111222,11111222,11111222' 
TCOON,ioos:station:TCOON:524:1,2010-05-01T18:00:00Z,29.8672,-93.9310,0.0,7.2,120.0,,'1111122,1111122,1111122' 
TCOON,ioos:station:TCOON:524:1,2010-05-01T18:06:00Z,29.8672,-93.9310,0.0,6.8,119.0,9.4,'11111222,11111222,11111222' 
TCOON,ioos:station:TCOON:524:1,2010-05-01T18:12:00Z,29.8672,-93.9310,0.0,6.4,119.0,9.9,'11111222,11111222,11111222' 
TCOON,ioos:station:TCOON:524:1,2010-05-01T18:18:00Z,29.8672,-93.9310,0.0,6.0,117.0,8.7,'11111222,11111222,11111222' 
TCOON,ioos:station:TCOON:524:1,2010-05-01T18:24:00Z,29.8672,-93.9310,0.0,6.0,120.0,10.2,'11111222,11111222,11111222' 
TCOON,ioos:station:TCOON:524:1,2010-05-01T18:30:00Z,29.8672,-93.9310,0.0,5.6,122.0,9.2,'11111222,11111222,11111222' 
TCOON,ioos:station:TCOON:524:1,2010-05-01T18:36:00Z,29.8672,-93.9310,0.0,5.0,126.0,7.8,'11111222,11111222,11111222' 
TCOON,ioos:station:TCOON:524:1,2010-05-01T18:42:00Z,29.8672,-93.9310,0.0,5.4,123.0,9.3,'11111222,11111222,11111222' 
TCOON,ioos:station:TCOON:524:1,2010-05-01T18:48:00Z,29.8672,-93.9310,0.0,5.4,128.0,9.4,'11111222,11111222,11111222' 
TCOON,ioos:station:TCOON:524:1,2010-05-01T18:54:00Z,29.8672,-93.9310,0.0,6.1,122.0,8.7,'11111222,11111222,11111222' 
TCOON,ioos:station:TCOON:524:1,2010-05-01T19:00:00Z,29.8672,-93.9310,0.0,5.7,120.0,,'1111122,1111122,1111122' 
TCOON,ioos:station:TCOON:524:1,2010-05-01T19:06:00Z,29.8672,-93.9310,0.0,4.7,121.0,7.3,'11111222,11111222,11111222' 
TCOON,ioos:station:TCOON:524:1,2010-05-01T19:12:00Z,29.8672,-93.9310,0.0,5.3,124.0,7.6,'11111222,11111222,11111222' 
TCOON,ioos:station:TCOON:524:1,2010-05-01T19:18:00Z,29.8672,-93.9310,0.0,5.2,124.0,7.4,'11111222,11111222,11111222' 
TCOON,ioos:station:TCOON:524:1,2010-05-01T19:24:00Z,29.8672,-93.9310,0.0,5.4,119.0,8.7,'11111222,11111222,11111222' 
TCOON,ioos:station:TCOON:524:1,2010-05-01T19:30:00Z,29.8672,-93.9310,0.0,6.0,125.0,9.9,'11111222,11111222,11111222' 
TCOON,ioos:station:TCOON:524:1,2010-05-01T19:36:00Z,29.8672,-93.9310,0.0,5.6,122.0,8.9,'11111222,11111222,11111222' 
TCOON,ioos:station:TCOON:524:1,2010-05-01T19:42:00Z,29.8672,-93.9310,0.0,6.5,128.0,9.2,'11111222,11111222,11111222' 
TCOON,ioos:station:TCOON:524:1,2010-05-01T19:48:00Z,29.8672,-93.9310,0.0,4.3,123.0,7.4,'11111222,11111222,11111222' 
TCOON,ioos:station:TCOON:524:1,2010-05-01T19:54:00Z,29.8672,-93.9310,0.0,6.0,125.0,10.0,'11111222,11111222,11111222' 
TCOON,ioos:station:TCOON:524:1,2010-05-01T20:00:00Z,29.8672,-93.9310,0.0,5.7,120.0,,'1111122,1111122,1111122' 
TCOON,ioos:station:TCOON:524:1,2010-05-01T20:06:00Z,29.8672,-93.9310,0.0,7.5,122.0,11.5,'11111222,11111222,11111222' 
TCOON,ioos:station:TCOON:524:1,2010-05-01T20:12:00Z,29.8672,-93.9310,0.0,6.7,126.0,10.6,'11111222,11111222,11111222' 
TCOON,ioos:station:TCOON:524:1,2010-05-01T20:18:00Z,29.8672,-93.9310,0.0,6.6,130.0,10.8,'11111222,11111222,11111222' 
TCOON,ioos:station:TCOON:524:1,2010-05-01T20:24:00Z,29.8672,-93.9310,0.0,6.3,129.0,10.0,'11111222,11111222,11111222' 
TCOON,ioos:station:TCOON:524:1,2010-05-01T20:30:00Z,29.8672,-93.9310,0.0,4.8,125.0,7.7,'11111222,11111222,11111222' 
TCOON,ioos:station:TCOON:524:1,2010-05-01T20:36:00Z,29.8672,-93.9310,0.0,5.6,128.0,11.5,'11111222,11111222,11111222' 
TCOON,ioos:station:TCOON:524:1,2010-05-01T20:42:00Z,29.8672,-93.9310,0.0,5.2,127.0,8.0,'11111222,11111222,11111222' 
TCOON,ioos:station:TCOON:524:1,2010-05-01T20:48:00Z,29.8672,-93.9310,0.0,6.6,133.0,10.6,'11111222,11111222,11111222' 
TCOON,ioos:station:TCOON:524:1,2010-05-01T20:54:00Z,29.8672,-93.9310,0.0,6.2,132.0,9.0,'11111222,11111222,11111222' 
TCOON,ioos:station:TCOON:524:1,2010-05-01T21:00:00Z,29.8672,-93.9310,0.0,5.7,130.0,,'1111122,1111122,1111122' 
TCOON,ioos:station:TCOON:524:1,2010-05-01T21:06:00Z,29.8672,-93.9310,0.0,5.9,134.0,9.5,'11111222,11111222,11111222' 
TCOON,ioos:station:TCOON:524:1,2010-05-01T21:12:00Z,29.8672,-93.9310,0.0,7.3,130.0,10.4,'11111222,11111222,11111222' 
TCOON,ioos:station:TCOON:524:1,2010-05-01T21:18:00Z,29.8672,-93.9310,0.0,6.0,128.0,9.0,'11111222,11111222,11111222' 
TCOON,ioos:station:TCOON:524:1,2010-05-01T21:24:00Z,29.8672,-93.9310,0.0,5.4,126.0,9.9,'11111222,11111222,11111222' 